Location: Holiday Acres Laynes 2 Mobile Home Park
(26.7249°N, 81.8671°W)
Time: 12:44:19
(UTC+00:00)

SAR-Lupe-4 - Pass Details

Date: 25 November 2020
Orbit: 481 x 484 km, 98.2° (Epoch: 09 January)

Event Time Altitude Azimuth Distance (km) Brightness Sun altitude
Rises 23:08:49 0° 18° (NNE) 2,546 6.9 -8.0°
Reaches altitude 10° 23:10:55 10° 24° (NNE) 1,664 5.9 -8.5°
Maximum altitude 23:14:25 51° 101° (E) 611 3.7 -9.2°
Drops below altitude 10° 23:17:53 10° 178° (S) 1,656 6.5 -9.9°
Sets 23:19:58 0° 183° (S) 2,533 7.5 -10.4°
